This demonstration page uses our WeatherBlox Daily Observations layout. Learn more.

Left ArrowRight Arrow

39.92423, -83.80882

Hourly Observations for April 13, 2022

Temp ( °F °C ) Dew Point ( °F °C ) Humidity (%) Winds ( mph kmh ) Pressure ( in mb ) Visibility ( mi km ) Precip ( " mm )
12:37 am 00:37 Partly Cloudy 63 17 N/A N/A SSE 9 15 29.89 1012 10 16 0.00 0.00
12:56 am 00:56 Mostly Clear 63 17 N/A N/A SSE 12 19 29.90 1013 10 16 0.00 0.00
1:56 am 01:56 Clear 61 16 N/A N/A SSE 12 19 29.87 1012 10 16 0.00 0.00
2:43 am 02:43 Mostly Clear 61 16 N/A N/A S 9 15 29.85 1011 10 16 0.00 0.00
2:56 am 02:56 Mostly Clear 61 16 N/A N/A S 7 11 29.85 1011 10 16 0.00 0.00
3:56 am 03:56 Clear 61 16 N/A N/A S 6 9 29.86 1011 10 16 0.00 0.00
4:56 am 04:56 Clear 59 15 N/A N/A SSE 8 13 29.86 1011 10 16 0.00 0.00
5:56 am 05:56 Clear 61 16 N/A N/A S 8 13 29.87 1012 10 16 0.00 0.00
6:56 am 06:56 Clear 61 16 N/A N/A SSE 9 15 29.84 1011 10 16 0.00 0.00
7:56 am 07:56 Sunny 61 16 N/A N/A S 9 15 29.85 1011 10 16 0.00 0.00
8:56 am 08:56 Sunny 63 17.2 63 17.2 100 100 S 10 17 29.85 1011 10 16 0.00 0.00
9:56 am 09:56 Mostly Cloudy with Light Rain 65 18.3 61 16.1 87 87 S 12 19 29.85 1011 10 16 0.00 0.00
10:56 am 10:56 Cloudy with Light Rain 63 17 N/A N/A S 17 28 29.84 1011 10 16 0.00 0.00
11:56 am 11:56 Cloudy with Light Rain 63 17 N/A N/A S 16 26 29.83 1010 10 16 0.00 0.00
12:56 pm 12:56 Cloudy with Light Rain 63 17 N/A N/A S 12 19 29.80 1009 10 16 0.00 0.00
1:56 pm 13:56 Cloudy 66 18.9 63 17.2 90 90 S 14 22 29.76 1008 10 16 0.00 0.00
2:56 pm 14:56 Cloudy 70 21.1 61 16.1 73 73 SSW 14 22 29.74 1007 10 16 0.00 0.00
3:56 pm 15:56 Cloudy with Light Rain 66 18.9 62 16.7 87 87 SSW 21 33 29.75 1008 7 11 0.00 0.00
4:56 pm 16:56 Cloudy with Light Rain N/A N/A N/A SSW 10 17 N/A 10 16 0.00 0.00
5:56 pm 17:56 Mostly Cloudy with Light Rain N/A N/A N/A S 10 17 N/A 10 16 0.00 0.00
6:56 pm 18:56 Cloudy 64 18 N/A N/A S 10 17 29.71 1006 10 16 0.00 0.00
7:56 pm 19:56 Mostly Cloudy 63 17 N/A N/A S 8 13 29.69 1005 10 16 0.00 0.00
8:56 pm 20:56 Mostly Clear 63 17 N/A N/A SSE 13 20 29.65 1004 10 16 0.00 0.00
9:56 pm 21:56 Cloudy with Light Rain 63 17 N/A N/A S 7 11 29.65 1004 10 16 0.00 0.00
10:34 pm 22:34 Cloudy with Nearby Thunderstorms N/A N/A N/A SSW 7 11 N/A 4 6 0.00 0.00
10:48 pm 22:48 Cloudy with Nearby Thunderstorms N/A N/A N/A SW 9 15 N/A 9 14 0.00 0.00
10:56 pm 22:56 Cloudy with Nearby Thunderstorms N/A N/A N/A WSW 29 46 N/A 5 8 0.00 0.00
11:04 pm 23:04 Cloudy with Rain N/A N/A N/A W 12 19 N/A 6 10 0.00 0.00
11:06 pm 23:06 Cloudy with Rain N/A N/A N/A W 12 19 N/A 9 14 0.00 0.00
11:56 pm 23:56 Cloudy with Rain N/A N/A N/A SW 9 15 N/A 10 16 0.00 0.00

Powered by AerisWeather